Millville, NJ

2:28 PM EDT on October 21, 2017 (GMT -0400)
Millville Municipal

Weather History for KMIV - February, 2013

Change the Weather History Date:

Sunday, February 24, 2013

  Actual Average Record
Temperature  
Mean Temperature 40 °F -  
Max Temperature 48 °F 47 °F 75 °F (1985)
Min Temperature 33 °F 29 °F 6 °F (2015)
Degree Days  
Heating Degree Days 24    
Moisture  
Dew Point 32 °F    
Average Humidity 74    
Maximum Humidity 100    
Minimum Humidity 42    
Precipitation  
Precipitation 0.00 in - - ()
Sea Level Pressure  
Sea Level Pressure 29.84 in    
Wind  
Wind Speed 10 mph (NNW)    
Max Wind Speed 22 mph    
Max Gust Speed 31 mph    
Visibility 8 miles    
Events Rain    
Averages and records for this station are not official NWS values.
T = Trace of Precipitation, MM = Missing Value Source: NWS Daily Summary

Daily Weather History Graph

Daily Weather History Graph

Search for Another Location

Airport or City:

Trip Planner

Search our weather history database for the weather conditions in past years. The results will help you decide how hot, cold, wet, or windy it might be!

Date:

Astronomy

Feb. 24, 2013 Rise Set
Actual Time 6:39 AM EST 5:47 PM EST
Civil Twilight 6:12 AM EST 6:14 PM EST
Nautical Twilight 5:41 AM EST 6:45 PM EST
Astronomical Twilight 5:10 AM EST 7:16 PM EST
Moon 4:56 PM EST (2/24) 5:35 AM EST (2/24)
Length of Visible Light 12h 01m
Length of Day
11h 07m
Waxing Gibbous, 99% of the Moon is Illuminated
Feb 24
Waxing Gibbous
Feb 25
Full
Mar 4
Last Quarter
Mar 11
New
Mar 19
First Quarter

Hourly Weather History & Observations

Time (EST) Temp. Windchill Dew Point Humidity Pressure Visibility Wind Dir Wind Speed Gust Speed Precip Events Conditions
12:21 AM 41.0 °F 36.4 °F 39.2 °F 93% 29.80 in 2.5 mi North 6.9 mph - N/A   Overcast
12:52 AM 39.2 °F 33.0 °F 39.2 °F 100% 29.79 in 1.8 mi North 9.2 mph - 0.00 in Rain Light Rain
12:54 AM 39.9 °F 34.5 °F 39.0 °F 97% 29.79 in 1.8 mi North 8.1 mph - 0.00 in Rain Light Rain
1:27 AM 39.2 °F 33.0 °F 39.2 °F 100% 29.80 in 2.0 mi North 9.2 mph - 0.00 in   Overcast
1:42 AM 39.2 °F 34.2 °F 37.4 °F 93% 29.81 in 4.0 mi North 6.9 mph - 0.00 in   Overcast
1:54 AM 39.9 °F 34.5 °F 37.9 °F 93% 29.80 in 2.5 mi North 8.1 mph - 0.00 in   Overcast
2:24 AM 39.2 °F 32.5 °F 37.4 °F 93% 29.79 in 3.0 mi North 10.4 mph - N/A   Overcast
2:54 AM 39.0 °F 31.8 °F 37.0 °F 93% 29.78 in 4.0 mi North 11.5 mph - N/A   Overcast
3:49 AM 39.2 °F 33.0 °F 37.4 °F 93% 29.76 in 2.5 mi North 9.2 mph - N/A   Overcast
3:54 AM 39.0 °F 34.0 °F 37.0 °F 93% 29.77 in 2.5 mi North 6.9 mph - N/A   Overcast
4:02 AM 37.4 °F 31.4 °F 37.4 °F 100% 29.77 in 5.0 mi North 8.1 mph - N/A   Overcast
4:46 AM 37.4 °F 29.8 °F 35.6 °F 93% 29.77 in 10.0 mi North 11.5 mph - N/A   Overcast
4:54 AM 37.9 °F 30.9 °F 36.0 °F 93% 29.78 in 10.0 mi North 10.4 mph - N/A   Overcast
5:54 AM 37.9 °F 32.1 °F 37.0 °F 97% 29.78 in 10.0 mi North 8.1 mph - N/A   Overcast
6:54 AM 39.0 °F 34.8 °F 37.0 °F 93% 29.79 in 9.0 mi NW 5.8 mph - N/A   Overcast
8:54 AM 41.0 °F 36.4 °F 37.0 °F 86% 29.83 in 10.0 mi WNW 6.9 mph - N/A   Mostly Cloudy
9:17 AM 42.8 °F 36.6 °F 37.4 °F 81% 29.84 in 10.0 mi WNW 11.5 mph - N/A   Mostly Cloudy
9:54 AM 45.0 °F 41.2 °F 37.9 °F 76% 29.82 in 10.0 mi NW 6.9 mph - N/A   Mostly Cloudy
10:13 AM 46.4 °F 41.9 °F 37.4 °F 71% 29.82 in 10.0 mi NW 9.2 mph - N/A   Mostly Cloudy
10:21 AM 46.4 °F 41.1 °F 37.4 °F 71% 29.82 in 10.0 mi NW 11.5 mph - N/A   Scattered Clouds
10:54 AM 46.9 °F - 36.0 °F 66% 29.83 in 10.0 mi NW 11.5 mph - N/A   Overcast
11:54 AM 48.0 °F - 33.1 °F 56% 29.82 in 9.0 mi WNW 15.0 mph 20.7 mph N/A   Mostly Cloudy
12:54 PM 48.0 °F - 30.9 °F 52% 29.81 in 8.0 mi WNW 18.4 mph 26.5 mph N/A   Mostly Cloudy
1:54 PM 46.9 °F - 28.0 °F 48% 29.81 in 10.0 mi WNW 15.0 mph 24.2 mph N/A   Clear
2:54 PM 48.0 °F - 26.1 °F 42% 29.82 in 10.0 mi NW 11.5 mph 31.1 mph N/A   Clear
3:54 PM 46.0 °F 38.0 °F 25.0 °F 44% 29.84 in 10.0 mi NW 21.9 mph 31.1 mph N/A   Clear
4:54 PM 44.1 °F 37.1 °F 24.1 °F 45% 29.88 in 10.0 mi NW 15.0 mph 24.2 mph N/A   Partly Cloudy
5:54 PM 39.9 °F 32.1 °F 21.9 °F 49% 29.92 in 10.0 mi NW 13.8 mph 28.8 mph N/A   Clear
6:54 PM 37.9 °F 28.5 °F 19.0 °F 47% 29.96 in 10.0 mi NW 17.3 mph 28.8 mph N/A   Clear
7:54 PM 36.0 °F 29.0 °F 19.0 °F 50% 29.99 in 10.0 mi NW 9.2 mph 19.6 mph N/A   Clear
8:54 PM 35.1 °F 27.9 °F 19.0 °F 52% 30.01 in 10.0 mi NW 9.2 mph - N/A   Clear
9:54 PM 34.0 °F 26.0 °F 19.0 °F 54% 30.03 in 10.0 mi WNW 10.4 mph - N/A   Clear
10:54 PM 33.1 °F 24.9 °F 19.9 °F 59% 30.03 in 10.0 mi NW 10.4 mph - N/A   Clear
11:54 PM 33.1 °F 24.9 °F 19.9 °F 59% 30.04 in 10.0 mi WNW 10.4 mph - N/A   Clear